Wetterdaten: Woche 15.12.14 - 21.12.14 (KW51)
Datum Zeit Temp. Aussen +5cm Feuchte Auss Luftdruck Regen Sonnenschein Regendauer Solar Windben
15.12.2014 00:00 -0,2 C -0,8 C 93 % 1014,5 hPa 0,0 l/m 0,00 h 0,00 h 0 W/m 14,5 km/h (3 Bft)
15.12.2014 01:00 0,2 C -0,4 C 94 % 1013,8 hPa 0,0 l/m 0,00 h 0,00 h 0 W/m 14,6 km/h (3 Bft)
15.12.2014 02:00 0,6 C 0,0 C 93 % 1013,3 hPa 0,0 l/m 0,00 h 0,00 h 0 W/m 16,9 km/h (3 Bft)
15.12.2014 03:00 0,8 C 0,0 C 92 % 1012,8 hPa 0,0 l/m 0,00 h 0,00 h 0 W/m 10,7 km/h (2 Bft)
15.12.2014 04:00 1,2 C 0,8 C 91 % 1012,0 hPa 0,0 l/m 0,00 h 0,00 h 0 W/m 13,9 km/h (3 Bft)
15.12.2014 05:00 2,6 C 1,8 C 88 % 1011,4 hPa 0,0 l/m 0,00 h 0,00 h 0 W/m 19,8 km/h (4 Bft)
15.12.2014 06:00 3,8 C 2,5 C 83 % 1010,9 hPa 0,2 l/m 0,00 h 0,00 h 0 W/m 20,0 km/h (4 Bft)
15.12.2014 07:00 4,4 C 3,0 C 83 % 1010,9 hPa 0,0 l/m 0,00 h 0,00 h 0 W/m 18,8 km/h (3 Bft)
15.12.2014 08:00 5,1 C 3,3 C 88 % 1011,2 hPa 0,0 l/m 0,00 h 0,40 h 4 W/m 32,8 km/h (5 Bft)
15.12.2014 09:00 4,6 C 2,8 C 92 % 1011,8 hPa 0,2 l/m 0,00 h 0,67 h 9 W/m 32,6 km/h (5 Bft)
15.12.2014 10:00 4,5 C 3,2 C 94 % 1012,6 hPa 0,0 l/m 0,00 h 0,13 h 15 W/m 29,2 km/h (5 Bft)
15.12.2014 11:00 4,8 C 3,4 C 95 % 1013,0 hPa 0,2 l/m 0,00 h 0,33 h 36 W/m 26,5 km/h (4 Bft)
15.12.2014 12:00 5,1 C 3,9 C 95 % 1013,2 hPa 0,0 l/m 0,00 h 0,00 h 63 W/m 27,9 km/h (4 Bft)
15.12.2014 13:00 5,3 C 3,9 C 94 % 1013,3 hPa 0,0 l/m 0,00 h 0,07 h 21 W/m 22,2 km/h (4 Bft)
15.12.2014 14:00 5,1 C 3,9 C 95 % 1013,3 hPa 0,0 l/m 0,00 h 0,17 h 31 W/m 19,1 km/h (3 Bft)
15.12.2014 15:00 5,1 C 3,7 C 95 % 1013,7 hPa 0,2 l/m 0,00 h 0,57 h 18 W/m 16,6 km/h (3 Bft)
15.12.2014 16:00 4,9 C 3,3 C 95 % 1014,0 hPa 0,0 l/m 0,00 h 0,13 h 7 W/m 14,0 km/h (3 Bft)
15.12.2014 17:00 4,7 C 3,3 C 95 % 1013,9 hPa 0,0 l/m 0,00 h 0,03 h 0 W/m 17,3 km/h (3 Bft)
15.12.2014 18:00 4,6 C 2,9 C 95 % 1014,1 hPa 0,0 l/m 0,00 h 0,00 h 0 W/m 14,5 km/h (3 Bft)
15.12.2014 19:00 4,1 C 2,3 C 95 % 1014,1 hPa 0,0 l/m 0,00 h 0,00 h 0 W/m 10,9 km/h (2 Bft)
15.12.2014 20:00 3,9 C 2,5 C 95 % 1014,1 hPa 0,0 l/m 0,00 h 0,00 h 0 W/m 11,0 km/h (2 Bft)
15.12.2014 21:00 4,1 C 2,8 C 95 % 1014,0 hPa 0,0 l/m 0,00 h 0,00 h 0 W/m 11,3 km/h (2 Bft)
15.12.2014 22:00 4,3 C 3,3 C 96 % 1013,8 hPa 0,0 l/m 0,00 h 0,00 h 0 W/m 8,3 km/h (2 Bft)
15.12.2014 23:00 4,2 C 2,8 C 95 % 1013,4 hPa 0,0 l/m 0,00 h 0,00 h 0 W/m 6,6 km/h (2 Bft)
16.12.2014 00:00 4,2 C 3,2 C 96 % 1013,0 hPa 0,0 l/m 0,00 h 0,00 h 0 W/m 9,2 km/h (2 Bft)
16.12.2014 01:00 4,6 C 3,9 C 96 % 1012,4 hPa 0,0 l/m 0,00 h 0,00 h 0 W/m 11,2 km/h (2 Bft)
16.12.2014 02:00 4,8 C 3,9 C 96 % 1012,1 hPa 0,0 l/m 0,00 h 0,00 h 0 W/m 9,9 km/h (2 Bft)
16.12.2014 03:00 4,9 C 3,9 C 96 % 1012,0 hPa 0,0 l/m 0,00 h 0,00 h 0 W/m 12,8 km/h (3 Bft)
16.12.2014 04:00 5,1 C 3,9 C 96 % 1011,8 hPa 0,0 l/m 0,00 h 0,00 h 0 W/m 14,2 km/h (3 Bft)
16.12.2014 05:00 5,1 C 3,9 C 96 % 1011,7 hPa 0,0 l/m 0,00 h 0,00 h 0 W/m 16,4 km/h (3 Bft)
16.12.2014 06:00 5,1 C 3,9 C 96 % 1011,4 hPa 0,0 l/m 0,00 h 0,00 h 0 W/m 17,9 km/h (3 Bft)
16.12.2014 07:00 5,2 C 4,0 C 97 % 1011,4 hPa 0,0 l/m 0,00 h 0,00 h 0 W/m 15,7 km/h (3 Bft)
16.12.2014 08:00 5,3 C 4,4 C 97 % 1011,5 hPa 0,0 l/m 0,00 h 0,00 h 5 W/m 15,5 km/h (3 Bft)
16.12.2014 09:00 5,5 C 4,5 C 97 % 1011,9 hPa 0,0 l/m 0,00 h 0,00 h 14 W/m 15,0 km/h (3 Bft)
16.12.2014 10:00 5,8 C 5,0 C 97 % 1012,3 hPa 0,0 l/m 0,13 h 0,00 h 62 W/m 18,3 km/h (3 Bft)
16.12.2014 11:00 6,4 C 5,5 C 96 % 1012,3 hPa 0,0 l/m 1,00 h 0,00 h 208 W/m 19,6 km/h (3 Bft)
16.12.2014 12:00 7,4 C 6,2 C 89 % 1012,0 hPa 0,0 l/m 0,33 h 0,00 h 132 W/m 19,0 km/h (3 Bft)
16.12.2014 13:00 7,2 C 5,9 C 86 % 1011,8 hPa 0,0 l/m 0,10 h 0,00 h 97 W/m 21,4 km/h (4 Bft)
16.12.2014 14:00 7,1 C 6,0 C 86 % 1011,5 hPa 0,0 l/m 0,00 h 0,00 h 60 W/m 20,5 km/h (4 Bft)
16.12.2014 15:00 6,8 C 5,1 C 86 % 1011,7 hPa 0,4 l/m 0,00 h 0,37 h 20 W/m 18,0 km/h (3 Bft)
16.12.2014 16:00 6,2 C 4,0 C 90 % 1012,2 hPa 0,0 l/m 0,07 h 0,00 h 10 W/m 14,1 km/h (3 Bft)
16.12.2014 17:00 6,1 C 4,0 C 91 % 1012,6 hPa 0,0 l/m 0,00 h 0,23 h 0 W/m 15,5 km/h (3 Bft)
16.12.2014 18:00 5,7 C 3,7 C 92 % 1013,2 hPa 0,0 l/m 0,00 h 0,07 h 0 W/m 13,7 km/h (3 Bft)
16.12.2014 19:00 5,2 C 2,8 C 92 % 1013,6 hPa 0,0 l/m 0,00 h 0,00 h 0 W/m 9,7 km/h (2 Bft)
16.12.2014 20:00 4,4 C 2,8 C 92 % 1013,9 hPa 0,0 l/m 0,00 h 0,00 h 0 W/m 11,5 km/h (2 Bft)
16.12.2014 21:00 4,0 C 2,1 C 92 % 1014,0 hPa 0,0 l/m 0,00 h 0,00 h 0 W/m 10,7 km/h (2 Bft)
16.12.2014 22:00 3,5 C 2,0 C 93 % 1014,0 hPa 0,0 l/m 0,00 h 0,00 h 0 W/m 10,5 km/h (2 Bft)
16.12.2014 23:00 3,5 C 2,1 C 95 % 1013,8 hPa 0,2 l/m 0,00 h 0,00 h 0 W/m 11,2 km/h (2 Bft)
17.12.2014 00:00 3,2 C 1,7 C 95 % 1013,6 hPa 0,0 l/m 0,00 h 0,00 h 0 W/m 13,4 km/h (3 Bft)
17.12.2014 01:00 3,3 C 2,2 C 96 % 1013,1 hPa 0,0 l/m 0,00 h 0,00 h 0 W/m 16,4 km/h (3 Bft)
17.12.2014 02:00 3,6 C 2,3 C 96 % 1012,3 hPa 0,0 l/m 0,00 h 0,00 h 0 W/m 15,7 km/h (3 Bft)
17.12.2014 03:00 3,6 C 2,2 C 96 % 1011,6 hPa 0,0 l/m 0,00 h 0,00 h 0 W/m 15,3 km/h (3 Bft)
17.12.2014 04:00 3,6 C 2,6 C 96 % 1010,5 hPa 0,0 l/m 0,00 h 0,00 h 0 W/m 18,7 km/h (3 Bft)
17.12.2014 05:00 3,8 C 2,8 C 94 % 1009,3 hPa 0,0 l/m 0,00 h 0,00 h 0 W/m 17,4 km/h (3 Bft)
17.12.2014 06:00 4,2 C 3,0 C 92 % 1008,1 hPa 0,2 l/m 0,00 h 0,30 h 0 W/m 15,9 km/h (3 Bft)
17.12.2014 07:00 4,5 C 2,8 C 93 % 1006,8 hPa 0,2 l/m 0,00 h 0,53 h 0 W/m 19,2 km/h (3 Bft)
17.12.2014 08:00 4,8 C 3,3 C 93 % 1005,7 hPa 0,6 l/m 0,00 h 0,90 h 7 W/m 22,0 km/h (4 Bft)
17.12.2014 09:00 4,6 C 3,3 C 95 % 1004,4 hPa 0,4 l/m 0,00 h 0,93 h 12 W/m 25,3 km/h (4 Bft)
17.12.2014 10:00 4,8 C 3,5 C 96 % 1003,6 hPa 0,4 l/m 0,00 h 0,33 h 14 W/m 21,2 km/h (4 Bft)
17.12.2014 11:00 5,4 C 4,2 C 97 % 1002,9 hPa 0,2 l/m 0,00 h 0,47 h 19 W/m 25,9 km/h (4 Bft)
17.12.2014 12:00 6,1 C 4,8 C 97 % 1002,5 hPa 0,2 l/m 0,00 h 0,63 h 35 W/m 31,6 km/h (5 Bft)
17.12.2014 13:00 6,7 C 5,5 C 98 % 1002,2 hPa 0,0 l/m 0,00 h 0,00 h 34 W/m 25,7 km/h (4 Bft)
17.12.2014 14:00 7,3 C 6,0 C 98 % 1002,7 hPa 0,2 l/m 0,00 h 0,23 h 23 W/m 24,6 km/h (4 Bft)
17.12.2014 15:00 7,8 C 6,6 C 98 % 1003,6 hPa 0,2 l/m 0,00 h 0,00 h 14 W/m 23,3 km/h (4 Bft)
17.12.2014 16:00 8,4 C 7,1 C 99 % 1004,4 hPa 0,0 l/m 0,00 h 0,00 h 0 W/m 17,4 km/h (3 Bft)
17.12.2014 17:00 8,8 C 7,2 C 99 % 1005,1 hPa 0,2 l/m 0,00 h 0,37 h 0 W/m 16,0 km/h (3 Bft)
17.12.2014 18:00 9,1 C 7,7 C 99 % 1005,9 hPa 0,0 l/m 0,00 h 0,13 h 0 W/m 15,5 km/h (3 Bft)
17.12.2014 19:00 9,3 C 7,8 C 99 % 1006,8 hPa 0,0 l/m 0,00 h 0,17 h 0 W/m 13,7 km/h (3 Bft)
17.12.2014 20:00 9,4 C 7,8 C 99 % 1007,8 hPa 0,2 l/m 0,00 h 0,43 h 0 W/m 13,8 km/h (3 Bft)
17.12.2014 21:00 9,6 C 8,2 C 99 % 1008,3 hPa 0,0 l/m 0,00 h 0,07 h 0 W/m 14,5 km/h (3 Bft)
17.12.2014 22:00 9,7 C 8,3 C 99 % 1008,8 hPa 0,0 l/m 0,00 h 0,00 h 0 W/m 12,7 km/h (3 Bft)
17.12.2014 23:00 9,8 C 8,3 C 99 % 1009,3 hPa 0,0 l/m 0,00 h 0,07 h 0 W/m 12,4 km/h (3 Bft)
18.12.2014 00:00 9,9 C 8,3 C 99 % 1009,7 hPa 0,0 l/m 0,00 h 0,00 h 0 W/m 13,7 km/h (3 Bft)
18.12.2014 01:00 9,9 C 8,3 C 100 % 1009,8 hPa 0,2 l/m 0,00 h 0,00 h 0 W/m 12,9 km/h (3 Bft)
18.12.2014 02:00 9,9 C 8,5 C 100 % 1009,6 hPa 0,0 l/m 0,00 h 0,00 h 0 W/m 15,7 km/h (3 Bft)
18.12.2014 03:00 9,9 C 8,6 C 100 % 1009,3 hPa 0,0 l/m 0,00 h 0,00 h 0 W/m 13,6 km/h (3 Bft)
18.12.2014 04:00 10,1 C 8,9 C 99 % 1009,2 hPa 0,0 l/m 0,00 h 0,03 h 0 W/m 17,3 km/h (3 Bft)
18.12.2014 05:00 10,2 C 8,9 C 99 % 1009,0 hPa 0,0 l/m 0,00 h 0,03 h 0 W/m 17,8 km/h (3 Bft)
18.12.2014 06:00 10,3 C 8,9 C 99 % 1009,1 hPa 0,2 l/m 0,00 h 0,35 h 0 W/m 17,4 km/h (3 Bft)
18.12.2014 07:00 10,4 C 8,9 C 99 % 1009,4 hPa 0,0 l/m 0,00 h 0,07 h 0 W/m 18,4 km/h (3 Bft)
18.12.2014 08:00 10,5 C 8,9 C 99 % 1009,5 hPa 0,0 l/m 0,00 h 0,00 h 6 W/m 17,1 km/h (3 Bft)
18.12.2014 09:00 10,7 C 9,4 C 99 % 1009,9 hPa 0,0 l/m 0,00 h 0,20 h 12 W/m 14,6 km/h (3 Bft)
18.12.2014 10:00 11,0 C 9,6 C 100 % 1010,2 hPa 0,0 l/m 0,00 h 0,03 h 36 W/m 21,6 km/h (4 Bft)
18.12.2014 11:00 11,6 C 10,5 C 100 % 1010,2 hPa 0,0 l/m 0,00 h 0,00 h 63 W/m 25,9 km/h (4 Bft)
18.12.2014 12:00 11,9 C 10,6 C 99 % 1010,1 hPa 0,2 l/m 0,00 h 0,00 h 55 W/m 28,4 km/h (4 Bft)
18.12.2014 13:00 12,0 C 10,6 C 98 % 1010,0 hPa 0,0 l/m 0,00 h 0,00 h 43 W/m 27,5 km/h (4 Bft)
18.12.2014 14:00 11,9 C 10,6 C 98 % 1010,1 hPa 0,0 l/m 0,00 h 0,00 h 35 W/m 27,1 km/h (4 Bft)
18.12.2014 15:00 12,0 C 10,6 C 98 % 1010,0 hPa 0,0 l/m 0,00 h 0,43 h 14 W/m 31,4 km/h (5 Bft)
18.12.2014 16:00 12,2 C 10,8 C 98 % 1010,2 hPa 0,0 l/m 0,00 h 0,00 h 0 W/m 38,5 km/h (5 Bft)
18.12.2014 17:00 12,4 C 11,1 C 97 % 1010,7 hPa 0,0 l/m 0,00 h 0,27 h 0 W/m 42,9 km/h (6 Bft)
18.12.2014 18:00 12,3 C 10,8 C 93 % 1011,1 hPa 0,0 l/m 0,00 h 0,00 h 0 W/m 47,8 km/h (6 Bft)
18.12.2014 19:00 12,3 C 10,6 C 91 % 1011,4 hPa 0,0 l/m 0,00 h 0,37 h 0 W/m 48,6 km/h (6 Bft)
18.12.2014 20:00 11,7 C 10,1 C 94 % 1011,6 hPa 0,0 l/m 0,00 h 1,00 h 0 W/m 41,3 km/h (6 Bft)
18.12.2014 21:00 11,4 C 10,0 C 97 % 1011,6 hPa 0,2 l/m 0,00 h 1,00 h 0 W/m 45,4 km/h (6 Bft)
18.12.2014 22:00 11,7 C 10,2 C 96 % 1011,9 hPa 0,0 l/m 0,00 h 1,00 h 0 W/m 46,4 km/h (6 Bft)
18.12.2014 23:00 11,8 C 10,6 C 95 % 1011,9 hPa 0,0 l/m 0,00 h 1,00 h 0 W/m 48,0 km/h (6 Bft)
19.12.2014 00:00 12,0 C 10,6 C 93 % 1012,2 hPa 0,0 l/m 0,00 h 0,97 h 0 W/m 45,9 km/h (6 Bft)
19.12.2014 01:00 11,8 C 10,2 C 93 % 1012,1 hPa 0,0 l/m 0,00 h 1,00 h 0 W/m 44,2 km/h (6 Bft)
19.12.2014 02:00 11,6 C 10,0 C 94 % 1012,0 hPa 0,0 l/m 0,00 h 1,00 h 0 W/m 38,2 km/h (5 Bft)
19.12.2014 03:00 11,3 C 9,5 C 95 % 1011,8 hPa 0,0 l/m 0,00 h 1,00 h 0 W/m 37,3 km/h (5 Bft)
19.12.2014 04:00 11,3 C 10,0 C 95 % 1011,2 hPa 0,0 l/m 0,00 h 1,00 h 0 W/m 40,2 km/h (6 Bft)
19.12.2014 05:00 11,2 C 10,0 C 95 % 1010,6 hPa 0,0 l/m 0,00 h 1,00 h 0 W/m 42,0 km/h (6 Bft)
19.12.2014 06:00 11,4 C 9,9 C 93 % 1010,1 hPa 0,0 l/m 0,00 h 0,97 h 0 W/m 47,5 km/h (6 Bft)
19.12.2014 07:00 11,1 C 9,4 C 94 % 1009,6 hPa 0,2 l/m 0,00 h 1,00 h 0 W/m 46,7 km/h (6 Bft)
19.12.2014 08:00 10,8 C 9,4 C 96 % 1009,4 hPa 0,2 l/m 0,00 h 1,00 h 5 W/m 46,5 km/h (6 Bft)
19.12.2014 09:00 10,7 C 8,9 C 96 % 1009,4 hPa 1,4 l/m 0,00 h 1,00 h 10 W/m 43,7 km/h (6 Bft)
19.12.2014 10:00 10,8 C 9,2 C 96 % 1009,6 hPa 0,6 l/m 0,00 h 1,00 h 28 W/m 45,4 km/h (6 Bft)
19.12.2014 11:00 10,8 C 9,4 C 97 % 1009,6 hPa 1,2 l/m 0,00 h 1,00 h 31 W/m 41,5 km/h (6 Bft)
19.12.2014 12:00 10,9 C 9,4 C 97 % 1009,5 hPa 1,2 l/m 0,00 h 0,98 h 31 W/m 41,8 km/h (6 Bft)
19.12.2014 13:00 10,3 C 8,6 C 97 % 1010,4 hPa 2,2 l/m 0,00 h 0,63 h 36 W/m 27,1 km/h (4 Bft)
19.12.2014 14:00 9,1 C 7,6 C 97 % 1011,6 hPa 0,8 l/m 0,00 h 0,20 h 24 W/m 21,7 km/h (4 Bft)
19.12.2014 15:00 8,2 C 7,0 C 96 % 1012,6 hPa 0,0 l/m 0,00 h 0,00 h 31 W/m 20,8 km/h (4 Bft)
19.12.2014 16:00 7,2 C 5,4 C 91 % 1013,7 hPa 0,0 l/m 0,17 h 0,00 h 12 W/m 19,9 km/h (4 Bft)
19.12.2014 17:00 6,5 C 4,4 C 89 % 1014,7 hPa 0,0 l/m 0,00 h 0,00 h 0 W/m 18,0 km/h (3 Bft)
19.12.2014 18:00 5,9 C 4,2 C 90 % 1015,5 hPa 0,0 l/m 0,00 h 0,00 h 0 W/m 18,7 km/h (3 Bft)
19.12.2014 19:00 5,5 C 3,9 C 90 % 1016,8 hPa 0,0 l/m 0,00 h 0,00 h 0 W/m 14,9 km/h (3 Bft)
19.12.2014 20:00 5,3 C 3,9 C 91 % 1017,6 hPa 0,0 l/m 0,00 h 0,00 h 0 W/m 19,5 km/h (3 Bft)
19.12.2014 21:00 5,5 C 4,0 C 90 % 1018,0 hPa 0,0 l/m 0,00 h 0,00 h 0 W/m 27,6 km/h (4 Bft)
19.12.2014 22:00 5,4 C 3,9 C 89 % 1018,8 hPa 0,0 l/m 0,00 h 0,00 h 0 W/m 25,5 km/h (4 Bft)
19.12.2014 23:00 5,2 C 3,9 C 89 % 1019,2 hPa 0,0 l/m 0,00 h 0,00 h 0 W/m 28,3 km/h (4 Bft)
20.12.2014 00:00 5,1 C 3,9 C 89 % 1019,7 hPa 0,0 l/m 0,00 h 0,00 h 0 W/m 28,0 km/h (4 Bft)
20.12.2014 01:00 4,9 C 3,5 C 89 % 1020,2 hPa 0,0 l/m 0,00 h 0,00 h 0 W/m 27,8 km/h (4 Bft)
20.12.2014 02:00 4,7 C 3,3 C 90 % 1020,4 hPa 0,0 l/m 0,00 h 0,00 h 0 W/m 26,3 km/h (4 Bft)
20.12.2014 03:00 4,5 C 3,1 C 90 % 1020,5 hPa 0,0 l/m 0,00 h 0,00 h 0 W/m 26,5 km/h (4 Bft)
20.12.2014 04:00 4,2 C 2,9 C 91 % 1020,4 hPa 0,0 l/m 0,00 h 0,00 h 0 W/m 28,6 km/h (4 Bft)
20.12.2014 05:00 4,3 C 3,3 C 91 % 1020,7 hPa 0,0 l/m 0,00 h 0,00 h 0 W/m 31,1 km/h (5 Bft)
20.12.2014 06:00 4,3 C 2,9 C 91 % 1020,6 hPa 0,0 l/m 0,00 h 0,00 h 0 W/m 27,7 km/h (4 Bft)
20.12.2014 07:00 4,2 C 2,8 C 92 % 1020,3 hPa 0,0 l/m 0,00 h 0,00 h 0 W/m 30,3 km/h (5 Bft)
20.12.2014 08:00 4,4 C 3,3 C 92 % 1020,2 hPa 0,0 l/m 0,00 h 0,00 h 6 W/m 32,2 km/h (5 Bft)
20.12.2014 09:00 4,9 C 4,0 C 92 % 1020,3 hPa 0,0 l/m 0,00 h 0,00 h 31 W/m 33,2 km/h (5 Bft)
20.12.2014 10:00 5,7 C 4,7 C 90 % 1020,0 hPa 0,0 l/m 0,17 h 0,00 h 73 W/m 35,0 km/h (5 Bft)
20.12.2014 11:00 6,3 C 5,3 C 89 % 1019,9 hPa 0,0 l/m 0,00 h 0,00 h 62 W/m 34,0 km/h (5 Bft)
20.12.2014 12:00 6,7 C 5,0 C 88 % 1019,4 hPa 0,4 l/m 0,00 h 0,63 h 62 W/m 36,7 km/h (5 Bft)
20.12.2014 13:00 6,4 C 4,4 C 91 % 1019,0 hPa 0,0 l/m 0,00 h 0,43 h 24 W/m 27,6 km/h (4 Bft)
20.12.2014 14:00 6,8 C 4,9 C 88 % 1018,7 hPa 0,0 l/m 0,00 h 0,13 h 26 W/m 30,1 km/h (5 Bft)
20.12.2014 15:00 7,2 C 5,6 C 87 % 1019,1 hPa 0,0 l/m 0,00 h 0,00 h 21 W/m 30,8 km/h (5 Bft)
20.12.2014 16:00 7,7 C 6,1 C 82 % 1019,6 hPa 0,0 l/m 0,00 h 0,10 h 7 W/m 34,0 km/h (5 Bft)
20.12.2014 17:00 7,2 C 5,3 C 84 % 1020,5 hPa 0,2 l/m 0,00 h 0,43 h 0 W/m 34,7 km/h (5 Bft)
20.12.2014 18:00 6,4 C 4,4 C 89 % 1021,5 hPa 0,0 l/m 0,00 h 0,32 h 0 W/m 29,6 km/h (5 Bft)
20.12.2014 19:00 5,7 C 3,9 C 89 % 1022,6 hPa 0,0 l/m 0,00 h 0,00 h 0 W/m 22,0 km/h (4 Bft)
20.12.2014 20:00 5,6 C 4,0 C 90 % 1023,8 hPa 0,0 l/m 0,00 h 0,00 h 0 W/m 24,1 km/h (4 Bft)
20.12.2014 21:00 5,7 C 4,0 C 90 % 1025,2 hPa 0,2 l/m 0,00 h 0,77 h 0 W/m 18,4 km/h (3 Bft)
20.12.2014 22:00 5,0 C 2,9 C 92 % 1025,9 hPa 0,2 l/m 0,00 h 0,00 h 0 W/m 13,9 km/h (3 Bft)
20.12.2014 23:00 4,6 C 2,7 C 93 % 1026,7 hPa 0,0 l/m 0,00 h 0,00 h 0 W/m 14,3 km/h (3 Bft)
21.12.2014 00:00 4,4 C 2,8 C 94 % 1027,3 hPa 0,0 l/m 0,00 h 0,00 h 0 W/m 16,4 km/h (3 Bft)
21.12.2014 01:00 4,5 C 2,8 C 94 % 1027,7 hPa 0,0 l/m 0,00 h 0,00 h 0 W/m 16,0 km/h (3 Bft)
21.12.2014 02:00 4,6 C 3,2 C 95 % 1028,4 hPa 0,0 l/m 0,00 h 0,00 h 0 W/m 14,8 km/h (3 Bft)
21.12.2014 03:00 5,0 C 3,6 C 95 % 1029,0 hPa 0,0 l/m 0,00 h 0,00 h 0 W/m 18,8 km/h (3 Bft)
21.12.2014 04:00 4,9 C 3,4 C 94 % 1029,0 hPa 0,0 l/m 0,00 h 0,00 h 0 W/m 18,0 km/h (3 Bft)
21.12.2014 05:00 4,4 C 2,9 C 94 % 1029,0 hPa 0,0 l/m 0,00 h 0,00 h 0 W/m 18,7 km/h (3 Bft)
21.12.2014 06:00 4,0 C 2,8 C 95 % 1029,0 hPa 0,0 l/m 0,00 h 0,00 h 0 W/m 17,8 km/h (3 Bft)
21.12.2014 07:00 3,9 C 3,0 C 96 % 1029,1 hPa 0,0 l/m 0,00 h 0,00 h 0 W/m 20,4 km/h (4 Bft)
21.12.2014 08:00 4,5 C 3,3 C 96 % 1029,0 hPa 0,0 l/m 0,00 h 0,00 h 9 W/m 18,2 km/h (3 Bft)
21.12.2014 09:00 4,6 C 3,8 C 96 % 1029,0 hPa 0,0 l/m 0,60 h 0,00 h 60 W/m 21,0 km/h (4 Bft)
21.12.2014 10:00 5,4 C 4,5 C 94 % 1028,9 hPa 0,0 l/m 0,00 h 0,00 h 56 W/m 25,9 km/h (4 Bft)
21.12.2014 11:00 6,0 C 5,1 C 92 % 1028,3 hPa 0,0 l/m 0,00 h 0,00 h 67 W/m 25,0 km/h (4 Bft)
21.12.2014 12:00 6,6 C 5,7 C 91 % 1027,6 hPa 0,0 l/m 0,00 h 0,00 h 62 W/m 22,3 km/h (4 Bft)
21.12.2014 13:00 6,9 C 5,6 C 89 % 1026,9 hPa 0,0 l/m 0,00 h 0,00 h 40 W/m 24,6 km/h (4 Bft)
21.12.2014 14:00 7,2 C 6,0 C 89 % 1026,2 hPa 0,0 l/m 0,00 h 0,03 h 27 W/m 25,9 km/h (4 Bft)
21.12.2014 15:00 7,2 C 5,6 C 92 % 1025,4 hPa 0,0 l/m 0,00 h 0,13 h 15 W/m 24,7 km/h (4 Bft)
21.12.2014 16:00 7,1 C 5,6 C 94 % 1024,9 hPa 0,0 l/m 0,00 h 0,07 h 4 W/m 30,1 km/h (5 Bft)
21.12.2014 17:00 7,2 C 5,6 C 95 % 1024,5 hPa 0,4 l/m 0,00 h 0,20 h 0 W/m 29,2 km/h (5 Bft)
21.12.2014 18:00 7,2 C 5,6 C 96 % 1024,4 hPa 0,2 l/m 0,00 h 0,33 h 0 W/m 30,5 km/h (5 Bft)
21.12.2014 19:00 7,3 C 6,1 C 97 % 1024,1 hPa 0,0 l/m 0,00 h 0,17 h 0 W/m 34,5 km/h (5 Bft)
21.12.2014 20:00 7,4 C 6,1 C 97 % 1023,5 hPa 0,2 l/m 0,00 h 0,13 h 0 W/m 38,6 km/h (5 Bft)
21.12.2014 21:00 7,6 C 6,1 C 95 % 1023,2 hPa 0,0 l/m 0,00 h 0,00 h 0 W/m 39,3 km/h (6 Bft)
21.12.2014 22:00 7,8 C 6,6 C 93 % 1023,0 hPa 0,0 l/m 0,00 h 0,00 h 0 W/m 40,9 km/h (6 Bft)
21.12.2014 23:00 8,1 C 6,7 C 91 % 1022,8 hPa 0,0 l/m 0,00 h 0,00 h 0 W/m 41,4 km/h (6 Bft)
Min-Datum _ 15.12.14 15.12.14 20.12.14 17.12.14 - - - - 15.12.14
_ Min-Zeit 00:00 00:00 16:30 13:06 - - - - 22:26
Minimum _ -0,3 C -1,1 C 81 % 1002,1 hPa - - - - 4,2 km/h (1 Bft)
Max-Datum _ 18.12.14 18.12.14 18.12.14 21.12.14 19.12.14 16.12.14 15.12.14 16.12.14 18.12.14
_ Max-Zeit 17:04 12:22 00:44 07:54 13:06 10:46 08:12 12:00 22:08
Maximum _ 12,4 C 11,1 C 100 % 1029,3 hPa 2,2 l/m 0,03 h 0,03 h 253 W/m 62,8 km/h
W (8 Bft)
Durchschnitt _ 6,7 C 5,4 C 94 % 1014,8 hPa #14,8 l/m #2:34 h #32:13 h 34 W/m 23,8 km/h (4 Bft)
© 2015 W. Hausmann